Augusto C. Sandino (Managua) International Airport
MNMG : now visible

Airfield :











YOU CAN JOIN US ON...

 
LOGIN :

Register | Disclaimer

   EN    FR    IT 

 









Legend :    VFR   Marginal VFR   IFR   Intensive IFR   Very Intensive IFR
Visi :
Ceiling :
>= 8 km
>= 3000ft
5 to 8 km
1000 to 3000 ft
1500m to 5 km
500 to 1000 ft
800 to 1500m
200 to 500 ft
< 800m
< 200 ft
Symbols :   Thunderstorms  Fog  Heavy snow  Heavy precipitations  Wind > 20 kt






- Airport Elevation : 194 ft
- IATA code : MGA


MNMG - Augusto C. Sandino (Managua) International

CURRENT METAR :
  • 231400Z 11010KT 9999 FEW022 BKN090 25/21 Q1014 A2996 NOSIG

EXPIRED METARs :
  • 231300Z 14008KT 9999 FEW022 23/21 Q1014 A2996 NOSIG
  • 231200Z 10006KT 9999 FEW020 23/20 Q1013 A2993 NOSIG

TAF MNMG
Valid from the 23 at 12:00 until the 24 at 12:00 UTC


231035Z 2312/2412 11006KT 9999 FEW020
TEMPO 2314/2316 09012KT FEW024 SCT070
TEMPO 2317/2323 08020G30KT



MET'MAP, your aeronautical weather chart ! - Copyright ORBIFLY December 2007 - Disclaimer

ORBIFLY MET'MAP TEAM :

Programming & Development : Alexandra Zaïnal
Concept & original design : Baudouin d'Aumeries
Assistance for programming : Marc-Olivier Méhu
Technical & hardware support : Manuel Goepfert

Contact : metmap@orbifly.com




SOURCES & CREDITS :

   NOAA       Earth
Advisory